Location: ??????
(30.5519°N, 47.7720°E)
Time: 18:08:36
(UTC+00:00)

CZ-4 R/B - Pass Details

Date: 24 January 2021
Orbit: 580 x 589 km, 97.7° (Epoch: 01 March)

Event Time Altitude Azimuth Distance (km) Brightness Sun altitude
Rises 15:12:49 0° 164° (SSE) 2,789 7.9 -12.0°
Reaches altitude 10° 15:14:58 10° 163° (SSE) 1,895 7.0 -12.4°
Maximum altitude 15:19:03 77° 78° (ENE) 603 4.3 -13.3°
Drops below altitude 10° 15:23:12 10° 352° (N) 1,912 7.0 -14.1°
Sets 15:25:22 0° 351° (N) 2,817 7.9 -14.6°
